Time,TemperatureF,DewpointF,PressureIn,WindDirection,WindDirectionDegrees,WindSpeedMPH,WindSpeedGustMPH,Humidity,HourlyPrecipIn,Conditions,Clouds,dailyrainin,SolarRadiationWatts/m^2,SoftwareType,DateUTC
2013-04-14 00:08:00,61.2,59.0,30.01,ESE,122,0.0,0.0,91,0.00,,,0.00,0,weatherlink.com 1.10,2013-04-14 04:08:00,
2013-04-14 00:23:00,61.3,59.0,30.01,ESE,122,0.0,0.0,92,0.00,,,0.00,0,weatherlink.com 1.10,2013-04-14 04:23:00,
2013-04-14 00:38:00,60.5,58.0,30.00,ESE,122,0.0,0.0,92,0.00,,,0.00,0,weatherlink.com 1.10,2013-04-14 04:38:00,
2013-04-14 00:53:00,60.2,58.0,30.00,ESE,122,0.0,0.0,93,0.00,,,0.00,0,weatherlink.com 1.10,2013-04-14 04:53:00,
2013-04-14 01:08:00,60.1,58.0,30.00,ESE,122,0.0,0.0,93,0.00,,,0.00,0,weatherlink.com 1.10,2013-04-14 05:08:00,
2013-04-14 01:23:00,59.9,58.0,30.00,ESE,122,0.0,0.0,94,0.00,,,0.00,0,weatherlink.com 1.10,2013-04-14 05:23:00,
2013-04-14 01:38:00,60.2,59.0,30.01,ESE,122,0.0,0.0,94,0.00,,,0.00,0,weatherlink.com 1.10,2013-04-14 05:38:00,
2013-04-14 01:53:00,60.0,58.0,30.01,ESE,122,0.0,0.0,94,0.00,,,0.00,0,weatherlink.com 1.10,2013-04-14 05:53:00,
2013-04-14 02:08:00,59.8,58.0,30.02,ESE,122,0.0,0.0,95,0.00,,,0.00,0,weatherlink.com 1.10,2013-04-14 06:08:00,
2013-04-14 02:23:00,59.6,58.0,30.01,ESE,122,0.0,0.0,94,0.00,,,0.00,0,weatherlink.com 1.10,2013-04-14 06:23:00,
2013-04-14 02:38:00,59.0,58.0,30.00,ESE,122,0.0,0.0,95,0.00,,,0.00,0,weatherlink.com 1.10,2013-04-14 06:38:00,
2013-04-14 02:53:00,59.7,59.0,30.00,ESE,122,0.0,0.0,96,0.00,,,0.00,0,weatherlink.com 1.10,2013-04-14 06:53:00,
2013-04-14 03:08:00,59.4,58.0,29.99,ESE,122,0.0,0.0,95,0.00,,,0.00,0,weatherlink.com 1.10,2013-04-14 07:08:00,
2013-04-14 03:23:00,58.7,57.0,29.99,ESE,122,0.0,0.0,95,0.00,,,0.00,0,weatherlink.com 1.10,2013-04-14 07:23:00,
2013-04-14 03:38:00,59.0,58.0,29.99,ESE,122,0.0,0.0,96,0.00,,,0.00,0,weatherlink.com 1.10,2013-04-14 07:38:00,
2013-04-14 03:53:00,59.0,58.0,30.00,ESE,122,0.0,0.0,96,0.00,,,0.00,0,weatherlink.com 1.10,2013-04-14 07:53:00,
2013-04-14 04:08:00,58.9,58.0,29.99,ESE,122,0.0,0.0,96,0.00,,,0.00,0,weatherlink.com 1.10,2013-04-14 08:08:00,
2013-04-14 04:23:00,58.2,57.0,30.00,ESE,122,0.0,0.0,96,0.00,,,0.00,0,weatherlink.com 1.10,2013-04-14 08:23:00,
2013-04-14 04:38:00,58.6,58.0,29.99,ESE,122,0.0,0.0,96,0.00,,,0.00,0,weatherlink.com 1.10,2013-04-14 08:38:00,
2013-04-14 04:53:00,58.7,58.0,30.00,ESE,122,0.0,0.0,97,0.00,,,0.00,0,weatherlink.com 1.10,2013-04-14 08:53:00,
2013-04-14 05:08:00,58.9,58.0,30.00,ESE,122,0.0,0.0,96,0.00,,,0.00,0,weatherlink.com 1.10,2013-04-14 09:08:00,
2013-04-14 05:23:00,58.7,58.0,30.00,ESE,122,0.0,0.0,97,0.00,,,0.00,0,weatherlink.com 1.10,2013-04-14 09:23:00,
2013-04-14 05:38:00,59.1,58.0,30.00,ESE,122,0.0,0.0,96,0.00,,,0.00,0,weatherlink.com 1.10,2013-04-14 09:38:00,
2013-04-14 05:53:00,59.0,58.0,30.00,ESE,122,0.0,0.0,96,0.00,,,0.00,0,weatherlink.com 1.10,2013-04-14 09:53:00,
2013-04-14 06:08:00,59.3,59.0,30.01,ESE,122,0.0,0.0,97,0.00,,,0.00,0,weatherlink.com 1.10,2013-04-14 10:08:00,
2013-04-14 06:23:00,59.1,58.0,30.01,ESE,122,0.0,0.0,96,0.00,,,0.00,0,weatherlink.com 1.10,2013-04-14 10:23:00,
2013-04-14 06:38:00,59.3,59.0,30.02,ESE,122,0.0,0.0,97,0.00,,,0.00,0,weatherlink.com 1.10,2013-04-14 10:38:00,
2013-04-14 06:53:00,59.5,59.0,30.02,ESE,122,0.0,0.0,97,0.00,,,0.00,0,weatherlink.com 1.10,2013-04-14 10:53:00,
2013-04-14 07:09:00,59.7,59.0,30.03,ESE,122,0.0,0.0,97,0.00,,,0.00,12,weatherlink.com 1.10,2013-04-14 11:09:00,
2013-04-14 07:24:00,59.8,59.0,30.03,ESE,122,0.0,0.0,97,0.00,,,0.00,21,weatherlink.com 1.10,2013-04-14 11:24:00,
2013-04-14 07:39:00,60.0,59.0,30.04,ESE,122,0.0,0.0,97,0.00,,,0.00,42,weatherlink.com 1.10,2013-04-14 11:39:00,
2013-04-14 07:54:00,60.3,60.0,30.04,ESE,122,0.0,0.0,97,0.00,,,0.00,53,weatherlink.com 1.10,2013-04-14 11:54:00,
2013-04-14 08:09:00,60.7,60.0,30.04,ESE,122,0.0,0.0,97,0.00,,,0.00,53,weatherlink.com 1.10,2013-04-14 12:09:00,
2013-04-14 08:24:00,61.2,60.0,30.04,ESE,122,0.0,0.0,97,0.00,,,0.00,69,weatherlink.com 1.10,2013-04-14 12:24:00,
2013-04-14 08:39:00,61.7,61.0,30.05,ESE,122,0.0,0.0,97,0.00,,,0.00,90,weatherlink.com 1.10,2013-04-14 12:39:00,
2013-04-14 08:54:00,62.3,62.0,30.05,ESE,122,0.0,0.0,97,0.00,,,0.00,113,weatherlink.com 1.10,2013-04-14 12:54:00,
2013-04-14 09:09:00,62.9,62.0,30.05,ESE,105,0.0,0.0,97,0.00,,,0.00,130,weatherlink.com 1.10,2013-04-14 13:09:00,
2013-04-14 09:24:00,63.3,62.0,30.05,NE,36,0.0,0.0,96,0.00,,,0.00,139,weatherlink.com 1.10,2013-04-14 13:24:00,
2013-04-14 09:39:00,63.7,63.0,30.05,ESE,105,0.0,0.0,96,0.00,,,0.00,153,weatherlink.com 1.10,2013-04-14 13:39:00,
2013-04-14 09:54:00,64.3,63.0,30.05,ESE,120,0.0,0.0,95,0.00,,,0.00,167,weatherlink.com 1.10,2013-04-14 13:54:00,
2013-04-14 10:09:00,65.0,63.0,30.06,ESE,114,0.0,1.0,93,0.00,,,0.00,163,weatherlink.com 1.10,2013-04-14 14:09:00,
2013-04-14 10:24:00,65.7,63.0,30.07,ESE,108,0.0,0.0,91,0.00,,,0.00,155,weatherlink.com 1.10,2013-04-14 14:24:00,
2013-04-14 10:39:00,66.1,63.0,30.07,SE,129,1.0,5.0,88,0.00,,,0.00,142,weatherlink.com 1.10,2013-04-14 14:39:00,
2013-04-14 10:54:00,66.3,62.0,30.07,ESE,114,0.0,6.0,87,0.00,,,0.00,162,weatherlink.com 1.10,2013-04-14 14:54:00,
2013-04-14 11:09:00,66.6,62.0,30.08,NE,44,0.0,0.0,85,0.00,,,0.00,211,weatherlink.com 1.10,2013-04-14 15:09:00,
2013-04-14 11:24:00,67.4,62.0,30.07,SE,137,0.0,0.0,84,0.00,,,0.00,325,weatherlink.com 1.10,2013-04-14 15:24:00,
2013-04-14 11:39:00,68.6,63.0,30.06,SSE,165,0.0,4.0,83,0.00,,,0.00,338,weatherlink.com 1.10,2013-04-14 15:39:00,
2013-04-14 11:54:00,69.3,63.0,30.04,SE,134,4.0,7.0,81,0.00,,,0.00,306,weatherlink.com 1.10,2013-04-14 15:54:00,
2013-04-14 12:09:00,69.3,63.0,30.04,ESE,114,0.0,10.0,80,0.00,,,0.00,258,weatherlink.com 1.10,2013-04-14 16:09:00,
2013-04-14 12:24:00,68.8,63.0,30.04,ESE,110,5.0,10.0,81,0.00,,,0.00,241,weatherlink.com 1.10,2013-04-14 16:24:00,
2013-04-14 12:39:00,68.9,63.0,30.04,ESE,113,2.0,13.0,81,0.00,,,0.00,239,weatherlink.com 1.10,2013-04-14 16:39:00,
2013-04-14 12:55:00,69.1,63.0,30.04,NNE,25,3.0,11.0,80,0.00,,,0.00,225,weatherlink.com 1.10,2013-04-14 16:55:00,
2013-04-14 13:10:00,69.3,63.0,30.04,NW,310,0.0,11.0,79,0.00,,,0.00,241,weatherlink.com 1.10,2013-04-14 17:10:00,
2013-04-14 13:25:00,69.4,62.0,30.04,ESE,114,6.0,7.0,78,0.00,,,0.00,188,weatherlink.com 1.10,2013-04-14 17:25:00,
2013-04-14 13:40:00,69.8,62.0,30.03,SE,130,4.0,9.0,76,0.00,,,0.00,188,weatherlink.com 1.10,2013-04-14 17:40:00,
2013-04-14 13:55:00,70.1,62.0,30.03,SE,125,7.0,10.0,75,0.00,,,0.00,248,weatherlink.com 1.10,2013-04-14 17:55:00,
2013-04-14 14:10:00,69.9,62.0,30.04,SE,132,3.0,7.0,77,0.00,,,0.00,109,weatherlink.com 1.10,2013-04-14 18:10:00,
2013-04-14 14:25:00,69.8,63.0,30.02,ENE,70,0.0,7.0,80,0.00,,,0.00,246,weatherlink.com 1.10,2013-04-14 18:25:00,
2013-04-14 14:40:00,69.6,63.0,30.03,ESE,118,2.0,7.0,80,0.00,,,0.00,230,weatherlink.com 1.10,2013-04-14 18:40:00,
2013-04-14 14:55:00,69.7,63.0,30.03,East,91,5.0,9.0,80,0.00,,,0.00,248,weatherlink.com 1.10,2013-04-14 18:55:00,
2013-04-14 15:10:00,69.8,63.0,30.03,SE,130,1.0,8.0,79,0.00,,,0.00,185,weatherlink.com 1.10,2013-04-14 19:10:00,
2013-04-14 15:25:00,69.9,64.0,30.02,ESE,107,0.0,5.0,80,0.00,,,0.00,178,weatherlink.com 1.10,2013-04-14 19:25:00,
2013-04-14 15:40:00,70.2,63.0,30.02,SE,145,3.0,10.0,77,0.00,,,0.00,151,weatherlink.com 1.10,2013-04-14 19:40:00,
2013-04-14 15:55:00,70.3,62.0,30.02,East,101,0.0,6.0,76,0.00,,,0.00,137,weatherlink.com 1.10,2013-04-14 19:55:00,
2013-04-14 16:10:00,70.7,63.0,30.02,SW,216,0.0,6.0,76,0.00,,,0.00,148,weatherlink.com 1.10,2013-04-14 20:10:00,
2013-04-14 16:25:00,71.0,63.0,30.02,SE,126,2.0,4.0,75,0.00,,,0.00,51,weatherlink.com 1.10,2013-04-14 20:25:00,
2013-04-14 16:40:00,71.0,63.0,30.02,NE,34,0.0,6.0,75,0.00,,,0.00,74,weatherlink.com 1.10,2013-04-14 20:40:00,
2013-04-14 16:55:00,70.8,63.0,30.02,NNE,17,0.0,5.0,76,0.00,,,0.00,46,weatherlink.com 1.10,2013-04-14 20:55:00,
2013-04-14 17:10:00,70.7,62.0,30.01,ENE,64,0.0,3.0,75,0.00,,,0.00,60,weatherlink.com 1.10,2013-04-14 21:10:00,
2013-04-14 17:25:00,70.5,62.0,30.00,NNE,13,0.0,5.0,75,0.00,,,0.00,83,weatherlink.com 1.10,2013-04-14 21:25:00,
2013-04-14 17:40:00,70.3,62.0,29.99,SE,136,3.0,12.0,75,0.00,,,0.00,67,weatherlink.com 1.10,2013-04-14 21:40:00,
2013-04-14 17:55:00,70.2,62.0,29.97,SE,144,4.0,12.0,76,0.00,,,0.00,58,weatherlink.com 1.10,2013-04-14 21:55:00,
2013-04-14 18:10:00,69.9,62.0,29.97,East,79,4.0,11.0,76,0.00,,,0.00,42,weatherlink.com 1.10,2013-04-14 22:10:00,
2013-04-14 18:25:00,70.0,62.0,29.98,SE,134,5.0,14.0,76,0.00,,,0.00,28,weatherlink.com 1.10,2013-04-14 22:25:00,
2013-04-14 18:40:00,69.6,62.0,29.98,East,101,5.0,15.0,78,0.00,,,0.00,16,weatherlink.com 1.10,2013-04-14 22:40:00,
2013-04-14 18:55:00,68.0,63.0,29.98,ENE,72,2.0,12.0,84,0.00,,,0.00,16,weatherlink.com 1.10,2013-04-14 22:55:00,
2013-04-14 19:10:00,66.8,63.0,29.95,ESE,103,0.0,9.0,88,0.00,,,0.00,12,weatherlink.com 1.10,2013-04-14 23:10:00,
2013-04-14 19:25:00,66.6,63.0,29.94,North,358,1.0,12.0,88,0.00,,,0.00,11,weatherlink.com 1.10,2013-04-14 23:25:00,
2013-04-14 19:40:00,67.2,63.0,29.91,ESE,114,3.0,13.0,85,0.01,,,0.01,0,weatherlink.com 1.10,2013-04-14 23:40:00,
2013-04-14 19:55:00,67.2,62.0,29.91,SE,126,5.0,13.0,84,0.01,,,0.01,0,weatherlink.com 1.10,2013-04-14 23:55:00,
2013-04-14 20:10:00,67.4,62.0,29.91,ENE,61,2.0,14.0,84,0.01,,,0.01,0,weatherlink.com 1.10,2013-04-15 00:10:00,
2013-04-14 20:25:00,67.5,63.0,29.95,SE,130,6.0,12.0,84,0.01,,,0.01,0,weatherlink.com 1.10,2013-04-15 00:25:00,
2013-04-14 20:40:00,67.0,63.0,29.98,SE,129,2.0,8.0,86,0.00,,,0.01,0,weatherlink.com 1.10,2013-04-15 00:40:00,
2013-04-14 20:55:00,65.8,63.0,30.00,ESE,122,0.0,8.0,89,0.04,,,0.05,0,weatherlink.com 1.10,2013-04-15 00:55:00,
2013-04-14 21:10:00,65.0,62.0,29.99,ENE,75,0.0,8.0,91,0.08,,,0.09,0,weatherlink.com 1.10,2013-04-15 01:10:00,
2013-04-14 21:25:00,64.9,63.0,29.98,ESE,114,3.0,9.0,92,0.08,,,0.09,0,weatherlink.com 1.10,2013-04-15 01:25:00,
2013-04-14 21:40:00,65.0,63.0,29.97,ESE,117,5.0,10.0,92,0.08,,,0.09,0,weatherlink.com 1.10,2013-04-15 01:40:00,
2013-04-14 21:55:00,65.3,63.0,29.97,SE,134,5.0,10.0,92,0.05,,,0.10,0,weatherlink.com 1.10,2013-04-15 01:55:00,
2013-04-14 22:10:00,65.5,64.0,29.97,SE,137,1.0,9.0,93,0.04,,,0.13,0,weatherlink.com 1.10,2013-04-15 02:10:00,
2013-04-14 22:25:00,65.6,64.0,29.97,ENE,69,0.0,3.0,93,0.04,,,0.13,0,weatherlink.com 1.10,2013-04-15 02:25:00,
2013-04-14 22:40:00,65.8,64.0,29.96,North,349,0.0,3.0,94,0.04,,,0.13,0,weatherlink.com 1.10,2013-04-15 02:40:00,
2013-04-14 22:55:00,65.8,64.0,29.96,ESE,116,3.0,7.0,94,0.04,,,0.14,0,weatherlink.com 1.10,2013-04-15 02:55:00,
2013-04-14 23:10:00,64.9,63.0,29.96,NNE,18,0.0,4.0,92,0.02,,,0.15,0,weatherlink.com 1.10,2013-04-15 03:10:00,
2013-04-14 23:25:00,64.7,63.0,29.96,North,6,0.0,6.0,93,0.04,,,0.17,0,weatherlink.com 1.10,2013-04-15 03:25:00,
2013-04-14 23:40:00,64.5,63.0,29.95,NE,36,0.0,3.0,93,0.05,,,0.18,0,weatherlink.com 1.10,2013-04-15 03:40:00,
2013-04-14 23:55:00,64.7,63.0,29.95,NE,35,0.0,4.0,94,0.07,,,0.21,0,weatherlink.com 1.10,2013-04-15 03:55:00,